DMSP 5D-2 F13 DEB, 40437

Orbit data source: Space-Track

DMSP 5D-2 F13 DEB, 40437 is space debris in SSO originally from a launch on Fri, 24 Mar 1995 UTC launched from the Air Force Western Test Range (AFWTR). Debris objects in space refer to the collection of defunct objects orbiting the Earth. Examples of debris include non-operational satellites, rocket bodies, and fragments generated from explosions, collisions, or faulty payload assembly.

Loading next visibility...
Identifier
40437, 1995-015AP
Orbit
SSO
Country
Flag of USUS
Related business
Manufacturer
Unknown
Mission
Spacecraft
Bus & Motor
Unknown
Mass
Unknown
Launch date (UTC)
1995-03-24 (31 years ago)
Launch vehicle
Unknown
Launch site
Air Force Western Test Range (AFWTR)
Object type
Payload
Rocket body
Debris
Shape & HBR
Unknown shape, 0.1 m
Radar Cross Section
Medium (>0.1 m² and <1 m²)

Expand to show TLE details & history
Last TLE update: 12 hours ago

TLE from 12 hours ago
0 DMSP 5D-2 F13 DEB
1 40437U 95015AP  26196.17920213  .00005575  00000-0  77379-3 0  9995
2 40437  98.6678 278.3429 0009424 334.1173  25.9563 14.78337143594223
Epoch: 2026-07-15T04:18Z
TLE epoch observation values (Epoch: 2026-07-15T04:18:03.064Z)
Latitude
-0.00001°
Longitude
-79.20859°
Altitude
631.631 km
Speed
7.546 km/s
True Right ascension
18h 33m 22s
True Declination
0° 00' 00"
Sunlit
Object was in full shadow at epoch
Visualization orbit readout
Latitude
Unknown
Longitude
Unknown
Altitude
Unknown
Speed
Unknown
Apparent Right ascension
Unknown
Apparent Declination
Unknown
Sunlit
N/A
Visualization observer readout
Local Sidereal Time
04:53:39
Azimuth
Unknown
Elevation
Unknown
Doppler factor
Unknown
Orbital elements
Apogee altitude
638.263 km
Perigee altitude
625.051 km
Semi-major axis
7,009.794 km
Eccentricity
0.00094
Inclination
98.6678°
RAAN
278.3429°
Arg. of periapsis
334.1173°
True anomaly
26.00362°
Mean anomaly
25.9563°
Eccentric anomaly
25.97995°
Mean motion
3.69816 °/min
Orbital period
97.35 mins
BSTAR
0.00077379

Documentation

Showing up to 5 results
|